Flag for U.S.A. Weather past 2 weeks in Evansville, Indiana, U.S.A.

Now
76 °F

Sunny.


Feels Like: 77 °F
Forecast: 77 / 91 °F
Wind: 3 mph from South

Location: Evansville Regional Airport

Current Time: Aug 23, 2014 at 7:32:34 AM

Latest Report: Aug 23, 2014 at 6:54 AM


Visibility: 10 mi

Pressure: 29.95 "Hg

Humidity: 82%

Dew point: 70 °F

Location of EvansvilleLocation

Historic Weather in Evansville — Graph

°F

Evansville temperature yesterday

Maximum temperature yesterday: 91 °F (at 2:54 PM)
Minimum temperature yesterday: 75 °F (at 5:54 AM)
Average temperature yesterday: 83 °F

Past Weeks' High & Low Weather Summary

 TemperatureHumidityPressure
High92 °F (Aug 21, 2:54 PM)97% (Aug 10, 4:54 AM)30.09 "Hg (Aug 10, 4:54 AM)
Low59 °F (Aug 13, 4:54 AM)38% (Aug 13, 1:54 PM)29.78 "Hg (Aug 19, 5:54 PM)
Average76 °F77%29.94 "Hg
* Reported Aug 8 5:54 AM — Aug 23 5:54 AM, Evansville, Weather by CustomWeather, © 2014

Note: Actual official high and low records may vary slightly from our data, if they occured in-between our weather recording intervals... More about our weather records

Advertising

Evansville weather history for previous 24 hours

 ConditionsComfort  
Time TempWeatherWind HumidityBarometerVisibility
5:54 AM
Aug 23
76 °FPassing clouds.No wind82%29.96 "Hg10 mi
4:54 AM76 °FPassing clouds.No wind85%29.95 "Hg10 mi
3:54 AM76 °FOvercast.3 mph85%29.96 "Hg10 mi
2:54 AM76 °FClear.3 mph85%29.96 "Hg10 mi
1:54 AM77 °FClear.3 mph85%29.96 "Hg10 mi
12:54 AM77 °FPassing clouds.5 mph85%29.98 "Hg10 mi
11:54 PM
Aug 22
80 °FThundershowers. Overcast.6 mph87%29.99 "Hg10 mi
10:54 PM82 °FPassing clouds.3 mph85%29.97 "Hg9 mi
9:54 PM83 °FPassing clouds.No wind82%29.97 "Hg10 mi
8:54 PM82 °FPassing clouds.No wind85%29.96 "Hg10 mi
7:54 PM84 °FClear.No wind77%29.94 "Hg10 mi
6:54 PM87 °FSunny.No wind67%29.94 "Hg10 mi
5:54 PM88 °FSunny.7 mph65%29.94 "Hg10 mi
4:54 PM88 °FSunny.8 mph63%29.93 "Hg10 mi
3:54 PM91 °FPassing clouds.8 mph60%29.94 "Hg10 mi
2:54 PM91 °FSunny.10 mph57%29.96 "Hg10 mi
1:54 PM90 °FPassing clouds.9 mph61%29.98 "Hg10 mi
12:54 PM88 °FSunny.5 mph65%30.01 "Hg8 mi
11:54 AM86 °FSunny.7 mph67%30.02 "Hg10 mi
10:54 AM85 °FPassing clouds.6 mph70%30.02 "Hg10 mi
9:54 AM84 °FSunny.13 mph72%30.03 "Hg10 mi
8:54 AM82 °FSunny.9 mph74%30.02 "Hg10 mi
7:54 AM79 °FSunny.6 mph82%30.01 "Hg10 mi
Weather by CustomWeather, © 2014

See weather overviewHow to use our weather pages